TimeEST,TemperatureF,Dew PointF,Humidity,Sea Level PressureIn,VisibilityMPH,Wind Direction,Wind SpeedMPH,Gust SpeedMPH,PrecipitationIn,Events,Conditions,WindDirDegrees,DateUTC
12:54 AM,41.0,21.9,47,29.73,10.0,WNW,12.7,24.2,N/A,,Overcast,300,2012-11-24 05:54:00
1:54 AM,39.0,23.0,53,29.74,10.0,West,10.4,24.2,N/A,,Overcast,280,2012-11-24 06:54:00
2:54 AM,37.0,21.0,52,29.75,10.0,WNW,10.4,18.4,N/A,,Mostly Cloudy,300,2012-11-24 07:54:00
3:54 AM,36.0,19.9,52,29.75,10.0,West,15.0,-,N/A,,Overcast,280,2012-11-24 08:54:00
4:54 AM,36.0,19.0,50,29.75,10.0,West,8.1,-,N/A,,Overcast,280,2012-11-24 09:54:00
5:54 AM,35.1,21.0,57,29.77,10.0,West,10.4,-,N/A,,Overcast,270,2012-11-24 10:54:00
6:54 AM,34.0,21.0,59,29.78,10.0,West,12.7,-,N/A,,Overcast,260,2012-11-24 11:54:00
7:54 AM,33.1,23.0,66,29.79,10.0,West,9.2,-,N/A,,Mostly Cloudy,260,2012-11-24 12:54:00
8:54 AM,36.0,21.9,57,29.79,10.0,West,11.5,-,N/A,,Mostly Cloudy,280,2012-11-24 13:54:00
9:54 AM,37.0,19.0,48,29.79,10.0,WNW,12.7,24.2,N/A,,Overcast,290,2012-11-24 14:54:00
10:54 AM,37.0,18.0,46,29.78,10.0,WNW,16.1,28.8,N/A,,Overcast,290,2012-11-24 15:54:00
11:54 AM,34.0,25.0,70,29.78,9.0,NNW,12.7,-,0.00,Snow,Light Snow,340,2012-11-24 16:54:00
12:54 PM,35.1,24.1,64,29.77,10.0,West,17.3,27.6,0.00,,Overcast,280,2012-11-24 17:54:00
1:54 PM,37.0,18.0,46,29.76,10.0,West,15.0,28.8,N/A,,Overcast,280,2012-11-24 18:54:00
2:54 PM,36.0,18.0,48,29.77,10.0,NW,17.3,23.0,0.00,,Overcast,310,2012-11-24 19:54:00
3:54 PM,35.1,17.1,48,29.80,10.0,WNW,16.1,28.8,N/A,,Overcast,300,2012-11-24 20:54:00
4:54 PM,34.0,16.0,48,29.82,10.0,NNW,15.0,19.6,N/A,,Overcast,330,2012-11-24 21:54:00
5:54 PM,34.0,16.0,48,29.83,10.0,WNW,9.2,-,N/A,,Mostly Cloudy,300,2012-11-24 22:54:00
6:54 PM,33.1,17.1,52,29.85,10.0,WNW,12.7,23.0,N/A,,Mostly Cloudy,290,2012-11-24 23:54:00
7:54 PM,33.1,17.1,52,29.85,10.0,WNW,9.2,18.4,N/A,,Overcast,300,2012-11-25 00:54:00
8:54 PM,33.1,19.0,56,29.86,10.0,West,9.2,21.9,N/A,,Overcast,280,2012-11-25 01:54:00
9:54 PM,33.1,18.0,54,29.87,10.0,WNW,13.8,-,N/A,,Overcast,290,2012-11-25 02:54:00
10:54 PM,33.1,15.1,48,29.88,10.0,WNW,16.1,25.3,N/A,,Overcast,300,2012-11-25 03:54:00
11:54 PM,32.0,19.0,59,29.89,10.0,West,10.4,20.7,N/A,,Overcast,280,2012-11-25 04:54:00